Temperature
25 26 25 25 25 25 25 25 23 21 20 20 19 18 18 17 17 17 17 16 16 16 15 14 14 14 14 14 14 14 14 14 14 15 15 15 16 16 16 17 17 17 17 17
26 24 23 24 24 24 24 24 22 20 20 20 19 18 18 17 17 16 16 16 16 15 15 14 14 13 13 13 13 13 13 13 14 14 14 15 15 15 16 16 16 16 17 17
25 23 23 23 24 24 23 23 22 21 19 19 20 19 19 18 17 17 16 16 15 15 14 14 13 13 13 13 12 13 12 13 13 13 14 14 14 15 15 15 16 16 16 16
23 23 23 23 22 23 23 21 21 21 21 21 20 21 19 18 18 17 16 16 15 14 14 14 13 13 13 12 12 12 12 12 13 13 13 14 14 14 14 15 15 15 16 16
22 22 23 22 21 21 21 20 21 21 21 21 20 21 20 19 18 17 17 16 15 14 14 14 13 13 13 12 12 12 12 12 12 13 13 13 13 14 14 14 15 15 15 15
22 21 22 21 21 20 21 21 21 21 22 21 20 20 19 18 17 17 17 16 15 15 14 14 13 13 13 12 12 12 12 12 12 12 13 13 13 13 13 14 14 14 15 15
22 22 21 21 22 21 22 22 23 22 22 21 19 19 18 17 17 16 16 15 15 14 14 13 13 13 12 12 12 12 11 12 12 12 12 13 13 13 13 13 14 14 14 15
23 22 21 21 21 21 21 22 22 22 22 21 19 19 18 17 16 16 16 15 15 14 14 13 13 13 12 12 12 11 11 11 12 12 12 12 12 13 13 13 13 14 14 14
24 22 20 20 20 21 21 21 21 22 21 21 20 19 18 17 17 16 16 15 15 14 14 13 13 13 12 12 12 11 11 11 11 12 12 12 12 12 13 13 13 13 14 14
24 22 21 20 20 20 21 20 21 21 21 21 20 19 18 18 17 17 16 16 15 14 14 13 13 13 12 12 12 11 11 11 11 11 12 12 12 12 12 13 13 13 13 14
22 23 21 21 21 20 20 20 20 20 20 20 20 19 18 18 17 17 16 15 15 14 14 13 13 13 12 12 12 12 11 11 11 11 12 12 12 12 12 13 13 13 13 13
21 23 22 20 19 19 20 20 20 21 20 19 19 19 18 17 17 16 16 15 15 14 14 14 13 13 12 12 12 12 11 11 11 11 11 12 12 12 12 12 13 13 13 13
21 22 22 21 20 19 19 19 19 19 20 19 19 19 18 17 17 16 16 15 15 14 14 14 13 13 12 12 12 12 11 11 11 11 11 11 12 12 12 12 12 12 13 13
20 22 22 22 22 21 19 18 18 19 20 20 19 19 18 18 17 16 16 15 15 14 14 14 13 13 12 12 12 12 11 11 11 11 11 11 11 11 12 12 12 12 12 13
21 22 21 20 20 20 20 19 18 19 19 20 19 18 19 18 17 16 16 15 15 15 14 14 13 13 13 12 12 12 11 11 11 11 11 11 11 11 11 12 12 12 12 12
21 21 21 20 19 19 19 19 19 19 19 19 18 18 19 17 17 16 16 15 15 15 14 14 14 13 13 13 12 12 11 11 11 11 11 11 11 11 11 11 12 12 12 12
21 22 21 21 19 20 21 21 20 19 19 19 19 20 19 18 17 17 16 15 15 14 14 14 13 13 13 13 12 12 12 11 11 11 11 11 11 11 11 11 11 11 12 12
21 21 21 21 20 20 22 20 20 20 20 20 19 19 18 18 17 16 15 15 15 14 14 13 13 13 13 13 12 12 12 11 11 11 11 11 11 11 11 11 11 11 11 11
20 21 21 22 22 22 21 20 20 20 20 20 20 19 18 17 16 16 15 15 14 14 13 13 13 13 13 13 12 12 12 12 11 11 11 11 11 11 11 11 11 11 11 11
18 20 21 21 21 22 22 21 19 20 20 20 19 19 18 17 18 18 16 15 14 14 13 13 13 13 13 13 12 12 12 12 11 11 11 11 11 11 11 11 11 11 11 11
20 20 21 21 22 23 22 19 18 20 22 20 19 18 18 18 19 17 15 14 14 14 14 13 13 13 13 13 12 12 12 11 11 11 11 11 11 11 11 11 11 10 10 10
22 22 21 21 22 23 19 19 20 22 20 19 19 18 17 17 16 15 15 14 14 14 14 14 13 13 13 13 12 12 12 11 11 11 11 11 11 11 10 11 10 10 10 10
22 23 23 22 23 21 19 20 20 19 19 18 18 18 17 16 16 15 15 14 14 14 14 14 13 13 13 13 12 12 12 11 11 11 11 11 10 11 11 10 10 10 10 10
22 19 20 21 22 20 18 18 18 18 18 18 17 17 16 16 16 15 15 15 14 14 14 14 13 13 13 13 13 12 12 12 11 11 11 11 10 10 10 10 10 10 10 10
22 20 21 22 22 19 18 18 18 17 17 17 17 16 16 16 16 15 15 15 14 14 14 14 14 13 13 13 13 12 12 12 11 11 11 11 11 10 10 10 10 10 10 10
21 21 22 23 23 22 22 20 19 18 17 17 17 16 16 16 15 15 15 14 14 14 14 14 14 13 13 13 13 12 12 12 11 11 11 11 11 10 10 10 10 10 10 10
Wind_Speed
3 3 4 5 4 3 0 2 3 5 4 5 9 9 7 8 10 11 12 13 14 14 14 14 14 14 14 14 14 14 13 13 11 9 9 8 8 7 8 8 10 11 12 12
6 6 5 3 3 2 2 3 4 6 4 3 7 7 6 8 10 10 12 13 14 15 15 15 15 15 15 15 15 15 14 13 12 10 9 8 9 8 8 7 8 11 12 12
6 5 3 3 4 3 2 1 3 5 5 5 5 5 4 5 7 9 11 11 13 14 15 16 16 16 15 16 15 14 15 14 13 13 10 9 7 7 6 6 6 8 11 12
8 5 4 5 6 3 1 2 2 6 6 3 4 3 4 3 6 10 11 12 13 14 14 14 15 16 16 15 15 15 15 14 13 12 10 11 8 8 7 6 5 6 8 9
6 5 4 4 5 4 3 1 3 5 4 3 2 5 3 3 7 10 11 12 13 13 14 14 14 15 15 15 15 15 15 15 14 13 11 10 9 8 7 6 6 5 5 7
7 4 5 4 3 3 3 4 4 5 5 4 1 4 2 4 8 9 10 11 12 13 13 14 14 14 14 15 15 15 16 16 15 14 12 10 11 10 8 7 5 4 3 4
6 5 4 2 1 2 3 4 3 4 4 0 2 2 2 4 5 7 9 11 12 12 13 14 15 15 15 16 16 15 16 16 15 14 13 11 10 9 8 7 6 4 3 3
5 4 4 5 3 2 1 4 4 4 3 1 1 1 2 2 4 5 7 9 10 12 12 13 14 14 14 15 15 15 16 16 16 14 13 11 10 7 6 7 6 5 4 3
3 4 4 5 4 2 1 1 3 3 2 2 1 1 2 1 3 5 7 8 10 11 12 13 13 14 14 14 14 14 15 15 15 14 13 11 11 10 8 8 6 5 4 3
2 5 4 2 2 5 4 1 3 3 3 2 1 0 2 2 4 6 7 9 10 11 12 12 12 13 13 12 12 13 14 14 14 14 12 10 11 10 9 8 8 7 5 4
1 4 5 3 2 3 1 1 1 1 3 3 2 2 2 2 4 6 7 8 9 10 11 12 12 12 12 12 13 13 13 14 14 14 13 12 11 10 10 9 9 7 6 5
1 2 4 4 3 2 2 2 2 2 0 1 2 2 3 1 3 5 6 7 8 9 10 11 11 11 12 12 13 13 13 13 13 13 12 12 12 11 11 10 10 8 7 6
3 3 4 5 4 4 2 1 0 1 1 1 2 2 3 2 2 3 4 6 7 8 9 10 11 11 11 12 12 12 12 13 13 13 12 12 12 12 12 11 11 10 9 8
2 2 2 1 3 4 4 4 3 3 2 1 2 1 1 2 2 2 3 5 6 7 9 10 10 10 11 11 12 12 12 12 12 12 12 13 13 12 11 11 11 10 9 9
2 2 3 3 3 2 3 4 6 5 3 3 1 3 2 1 2 1 2 4 5 7 9 10 10 10 11 11 12 12 12 12 12 12 12 12 12 11 11 11 11 11 10 10
2 3 5 4 3 3 5 6 7 6 5 5 4 4 2 2 2 2 1 3 5 6 8 9 10 10 10 11 11 11 11 11 11 11 12 11 11 11 11 11 11 11 11 10
4 5 4 3 3 4 7 9 10 7 7 7 6 3 5 5 4 3 1 2 3 5 7 8 9 9 10 10 10 11 11 10 11 11 11 11 11 11 11 11 11 11 10 10
4 4 3 2 4 5 2 3 6 7 8 9 6 5 7 5 4 3 2 2 2 4 6 7 8 8 9 9 9 9 9 10 10 11 11 11 11 11 11 11 11 11 10 10
2 4 3 3 4 4 3 6 7 7 7 11 11 9 8 6 5 5 4 2 2 3 4 5 6 6 7 8 9 9 9 10 10 10 11 11 11 10 11 11 10 10 10 10
2 4 4 4 4 3 3 7 7 5 6 10 13 12 11 10 7 5 5 3 1 1 3 4 4 5 6 7 7 8 9 10 10 9 9 9 9 10 10 10 9 9 8 9
5 5 6 6 5 4 5 9 9 6 1 10 14 14 14 12 4 5 6 4 2 0 1 3 3 4 5 6 6 7 8 9 8 7 8 8 9 9 9 9 9 8 8 8
7 6 6 5 5 3 11 11 9 3 4 9 13 14 14 10 6 7 6 5 3 2 0 2 2 3 3 4 5 6 7 6 6 6 6 7 8 8 8 9 9 9 9 9
7 6 4 6 3 2 13 9 6 3 6 9 12 13 13 12 10 9 8 6 4 2 1 1 2 2 2 3 4 5 5 4 4 5 6 6 7 7 8 8 9 8 8 8
6 4 5 6 8 8 12 11 8 7 7 9 11 13 14 13 11 10 8 7 5 3 2 1 1 1 2 2 3 3 3 2 3 4 5 5 6 7 7 7 7 8 8 8
5 8 6 8 6 5 10 15 14 11 9 9 11 13 14 13 12 11 9 7 6 4 3 2 1 1 1 1 2 2 2 2 2 3 4 4 4 5 6 6 6 7 8 7
9 10 8 6 6 7 5 11 16 15 14 14 14 13 13 12 12 11 9 8 6 5 4 3 2 2 1 1 1 1 1 2 2 2 2 3 3 3 3 4 5 7 6 8
Wind_Direction
69 105 75 40 19 4 352 197 129 107 112 94 104 100 74 49 38 29 23 17 13 8 4 4 360 356 353 352 349 346 342 340 335 328 321 312 298 284 266 253 241 233 230 226
135 83 53 54 70 102 143 166 133 123 129 134 126 106 83 52 40 29 19 14 9 2 1 3 359 357 355 353 349 345 344 340 337 329 317 305 300 288 275 265 249 236 231 226
108 79 75 91 77 97 86 309 170 155 144 158 175 161 98 65 42 31 23 15 10 4 359 0 359 358 355 354 351 347 345 342 339 333 323 317 308 294 284 274 258 245 234 227
85 79 98 88 56 350 124 51 168 173 193 183 236 253 109 45 31 24 18 13 8 3 360 1 359 357 356 355 351 348 346 344 343 337 331 325 313 302 295 291 277 257 239 229
97 74 66 64 41 4 56 87 188 201 226 219 231 276 106 42 14 13 9 7 4 1 359 358 357 355 355 355 353 350 348 347 346 342 337 331 324 313 306 304 291 274 251 234
99 79 41 45 68 54 135 154 151 191 228 243 331 292 55 28 1 356 358 360 359 358 357 355 355 355 356 356 355 352 349 349 347 346 343 341 336 330 323 316 307 297 269 240
118 93 68 16 203 134 234 244 235 219 224 143 53 293 46 27 357 345 345 350 353 355 356 355 354 354 355 356 356 353 352 351 349 349 346 345 343 334 330 325 314 303 289 265
172 123 61 31 5 354 7 299 309 310 321 81 179 326 74 24 342 338 343 348 353 356 357 356 355 354 354 355 355 355 353 352 351 351 350 348 348 342 337 333 328 318 307 284
172 124 102 56 38 337 302 19 342 300 296 267 139 141 163 237 330 343 349 352 355 355 354 352 352 354 355 356 356 355 355 354 354 355 354 354 353 354 351 344 339 335 326 313
137 137 129 144 165 59 31 29 258 283 303 304 174 214 20 360 349 347 349 351 352 351 351 352 352 353 355 355 356 357 358 356 356 357 359 359 358 359 358 358 358 354 347 342
156 154 144 163 58 36 94 103 29 350 323 314 318 91 60 356 344 340 346 350 349 349 351 352 353 354 356 359 1 360 359 358 359 359 359 1 3 4 5 6 5 4 2 3
102 184 143 121 95 19 16 21 303 306 32 312 301 91 119 288 325 330 337 344 347 349 351 352 354 356 360 3 3 2 1 1 0 360 2 5 7 9 10 10 10 14 20 22
165 194 161 164 177 183 170 107 2 342 199 241 290 92 134 240 298 323 334 344 348 352 354 357 358 1 1 2 3 3 4 2 2 4 7 10 12 12 11 12 14 18 26 32
234 215 282 353 93 148 171 178 204 244 263 245 260 292 195 239 282 323 339 347 351 356 359 2 0 4 3 3 4 5 5 3 4 8 10 11 12 11 12 14 18 23 27 32
236 178 123 94 108 162 191 198 207 234 269 270 250 255 270 231 251 304 329 346 354 0 2 2 2 3 2 5 5 5 4 5 6 11 13 12 10 13 17 20 21 26 27 30
206 173 160 161 174 219 237 225 220 230 235 236 242 242 190 190 216 239 293 346 351 357 359 360 1 1 1 4 2 2 4 5 8 15 15 11 12 16 19 22 26 30 29 29
181 184 200 191 185 245 249 221 211 214 213 216 223 197 170 197 207 221 258 317 341 351 352 355 357 359 359 1 360 2 4 5 11 18 20 16 16 20 20 21 27 30 31 32
183 187 212 205 207 239 112 129 199 218 223 218 220 188 188 196 194 212 243 283 329 347 346 352 353 357 356 359 1 2 9 13 15 19 22 21 20 22 22 23 24 27 32 34
218 198 213 229 245 257 197 192 194 212 234 213 209 198 188 180 198 207 202 230 301 333 337 342 343 347 353 2 0 3 14 19 21 20 20 21 21 22 23 25 24 25 31 36
161 224 232 229 253 250 152 156 173 209 242 195 197 193 184 185 206 179 167 185 219 314 332 338 339 351 2 5 1 8 17 20 22 19 19 21 22 24 25 25 24 27 33 39
188 201 223 235 252 258 143 149 164 211 248 168 188 188 186 196 201 135 155 172 184 224 333 336 345 1 6 2 2 16 22 23 18 17 23 26 26 29 28 27 28 30 36 41
204 200 210 215 234 242 149 162 198 232 121 170 185 187 189 191 168 160 169 172 179 190 286 342 350 8 11 5 4 21 26 21 21 25 30 31 30 29 29 33 32 34 35 40
218 222 225 222 254 76 178 193 204 191 184 184 187 187 187 186 183 183 183 183 183 192 204 320 331 353 17 15 4 16 26 20 25 33 37 35 34 35 32 31 34 36 37 37
204 208 229 250 253 227 210 215 207 203 200 188 187 184 186 189 188 187 189 189 188 190 198 242 299 340 18 16 6 9 12 8 21 35 38 40 36 38 39 34 34 36 32 32
203 186 218 244 249 226 222 216 209 200 196 185 183 185 188 190 191 191 192 193 193 190 193 214 262 314 347 358 358 9 354 335 8 34 42 47 45 40 40 47 40 37 44 31
197 196 203 234 214 205 204 199 196 193 193 189 184 185 190 193 193 194 196 194 195 196 196 210 232 260 293 319 338 12 333 305 331 24 37 42 46 43 40 48 74 71 57 54
Height
1548 1548 1553 1554 1553 1552 1552 1554 1561 1570 1574 1574 1577 1580 1582 1583 1582 1580 1577 1575 1573 1571 1568 1565 1561 1557 1553 1549 1545 1541 1537 1534 1530 1527 1524 1522 1520 1519 1518 1518 1518 1519 1521 1523
1548 1555 1559 1558 1556 1555 1555 1558 1565 1573 1575 1574 1577 1580 1582 1583 1582 1581 1579 1577 1574 1571 1568 1565 1561 1557 1553 1548 1544 1540 1536 1532 1528 1524 1521 1518 1516 1514 1513 1512 1512 1513 1515 1516
1551 1561 1561 1559 1558 1558 1559 1560 1563 1570 1576 1575 1576 1579 1579 1582 1582 1581 1580 1578 1575 1572 1568 1565 1560 1556 1552 1547 1543 1538 1534 1530 1525 1521 1518 1515 1512 1510 1509 1508 1507 1508 1509 1511
1557 1562 1562 1561 1563 1560 1563 1566 1566 1569 1570 1571 1575 1571 1577 1579 1579 1580 1579 1578 1575 1572 1569 1565 1561 1556 1552 1547 1542 1538 1533 1528 1524 1519 1516 1512 1509 1507 1505 1504 1503 1503 1504 1505
1562 1564 1563 1564 1567 1565 1566 1568 1566 1566 1566 1569 1571 1569 1573 1577 1578 1579 1579 1578 1575 1573 1569 1566 1561 1557 1552 1547 1542 1537 1532 1527 1522 1518 1514 1510 1507 1504 1502 1501 1500 1500 1500 1501
1564 1568 1567 1567 1569 1569 1568 1568 1567 1566 1564 1569 1573 1573 1576 1578 1580 1579 1579 1577 1575 1573 1569 1566 1562 1557 1552 1547 1542 1536 1531 1526 1521 1517 1513 1509 1505 1503 1500 1499 1497 1497 1497 1497
1564 1567 1569 1570 1567 1567 1565 1564 1564 1565 1566 1569 1575 1576 1580 1581 1581 1581 1580 1578 1576 1573 1569 1566 1561 1557 1552 1547 1541 1536 1531 1525 1520 1516 1511 1508 1504 1501 1499 1497 1496 1495 1495 1495
1561 1568 1570 1570 1568 1567 1567 1564 1567 1568 1565 1569 1576 1577 1579 1581 1582 1582 1580 1578 1576 1573 1569 1566 1562 1557 1552 1547 1542 1537 1531 1526 1521 1516 1511 1507 1504 1501 1499 1496 1495 1494 1493 1493
1556 1568 1572 1573 1572 1569 1566 1566 1568 1566 1568 1570 1573 1577 1578 1580 1580 1580 1579 1578 1575 1573 1570 1566 1562 1558 1553 1548 1543 1538 1532 1527 1522 1517 1512 1507 1504 1501 1499 1496 1495 1493 1492 1491
1555 1566 1571 1573 1572 1573 1570 1570 1567 1566 1571 1570 1573 1576 1577 1578 1578 1578 1578 1577 1575 1573 1570 1566 1562 1558 1554 1549 1544 1539 1534 1529 1523 1518 1513 1509 1505 1502 1499 1497 1495 1493 1492 1491
1559 1561 1571 1571 1570 1571 1571 1571 1570 1569 1570 1572 1575 1578 1576 1578 1579 1578 1578 1577 1575 1573 1570 1567 1563 1559 1555 1550 1545 1540 1535 1530 1525 1520 1515 1511 1508 1504 1501 1498 1496 1494 1493 1491
1562 1559 1565 1571 1575 1575 1572 1572 1571 1570 1573 1574 1574 1579 1576 1578 1579 1579 1578 1577 1575 1573 1570 1567 1563 1559 1555 1551 1546 1542 1537 1532 1527 1522 1518 1514 1510 1506 1503 1500 1498 1496 1494 1493
1563 1561 1567 1572 1576 1575 1574 1575 1574 1572 1571 1573 1575 1578 1577 1578 1578 1578 1578 1577 1575 1573 1570 1567 1563 1560 1556 1552 1547 1543 1538 1534 1529 1524 1520 1516 1512 1508 1505 1502 1500 1498 1496 1495
1565 1561 1562 1565 1565 1567 1572 1576 1576 1573 1569 1571 1573 1573 1574 1575 1576 1577 1577 1576 1574 1573 1570 1567 1564 1560 1557 1553 1549 1545 1540 1535 1531 1527 1522 1518 1515 1511 1508 1505 1503 1501 1499 1497
1564 1561 1564 1567 1569 1569 1570 1572 1574 1573 1570 1570 1571 1573 1571 1573 1575 1576 1576 1576 1574 1572 1570 1567 1564 1561 1558 1554 1550 1546 1542 1538 1533 1529 1525 1521 1518 1514 1511 1508 1505 1503 1502 1500
1562 1562 1565 1569 1570 1570 1570 1570 1571 1571 1571 1570 1571 1571 1570 1573 1575 1575 1575 1575 1574 1572 1570 1568 1565 1562 1558 1555 1551 1547 1543 1540 1536 1532 1528 1524 1520 1517 1514 1511 1509 1506 1504 1502
1561 1561 1564 1564 1569 1570 1566 1561 1565 1566 1566 1567 1568 1567 1570 1572 1573 1574 1574 1574 1573 1572 1570 1568 1565 1562 1559 1556 1553 1549 1545 1541 1538 1534 1530 1526 1523 1520 1517 1514 1512 1509 1507 1505
1561 1561 1562 1563 1568 1571 1558 1558 1559 1561 1562 1563 1563 1566 1569 1570 1572 1573 1573 1573 1572 1572 1570 1568 1565 1563 1560 1557 1554 1550 1547 1543 1539 1536 1532 1529 1526 1523 1520 1517 1514 1512 1510 1508
1563 1562 1562 1561 1561 1557 1557 1557 1559 1560 1558 1558 1561 1564 1567 1570 1571 1571 1572 1572 1572 1571 1569 1567 1565 1563 1560 1558 1555 1552 1549 1545 1542 1538 1535 1532 1529 1526 1523 1520 1517 1515 1513 1511
1566 1563 1560 1562 1562 1558 1550 1552 1556 1559 1556 1553 1557 1560 1564 1568 1566 1567 1569 1570 1570 1569 1568 1566 1565 1563 1561 1558 1555 1553 1550 1547 1543 1540 1537 1534 1532 1529 1526 1523 1521 1519 1517 1515
1561 1561 1560 1559 1557 1547 1547 1553 1557 1559 1548 1550 1553 1557 1561 1563 1563 1566 1567 1569 1569 1568 1567 1566 1565 1563 1561 1558 1556 1554 1552 1548 1545 1542 1540 1537 1534 1532 1529 1527 1524 1522 1520 1519
1550 1553 1554 1554 1554 1548 1547 1551 1551 1546 1547 1549 1552 1555 1558 1561 1563 1565 1566 1567 1567 1567 1566 1565 1564 1563 1561 1559 1557 1555 1552 1550 1547 1544 1542 1539 1537 1535 1532 1530 1528 1526 1524 1522
1546 1544 1542 1544 1542 1540 1543 1543 1544 1545 1546 1548 1550 1553 1556 1559 1561 1563 1565 1566 1566 1566 1565 1565 1564 1563 1561 1559 1557 1556 1553 1551 1549 1546 1544 1541 1539 1537 1535 1533 1531 1529 1527 1525
1541 1545 1544 1541 1536 1538 1539 1540 1542 1543 1545 1546 1548 1551 1554 1557 1559 1561 1563 1564 1564 1564 1564 1563 1563 1562 1561 1559 1557 1555 1553 1551 1550 1548 1546 1544 1542 1540 1538 1536 1534 1532 1530 1528
1535 1541 1538 1535 1532 1534 1534 1534 1537 1540 1542 1544 1546 1549 1551 1554 1557 1559 1560 1562 1562 1563 1562 1562 1562 1561 1560 1558 1557 1555 1553 1552 1551 1549 1547 1546 1544 1542 1540 1538 1536 1535 1533 1531
1530 1531 1531 1527 1525 1527 1527 1528 1531 1535 1538 1541 1543 1546 1549 1551 1554 1556 1558 1559 1560 1560 1560 1560 1560 1559 1559 1557 1556 1554 1553 1552 1551 1550 1549 1547 1546 1544 1543 1541 1539 1537 1535 1534